EW5546 Weather Reports


time (UTC)temp
C
wind
direction
speed
KPH
gust
KPH
rain 1hr
cm
rain 24hr
cm
rain mn
cm
humidity
%
barometer
mb
20260905101537 19 189 3.2 4.8 0.00 0.20 0.00 47 1010.0
20260905100527 19 89 1.6 3.2 0.00 0.20 0.00 47 1010.0
20260905095524 19 106 3.2 6.4 0.00 0.20 0.00 47 1010.0
20260905094526 20 136 4.8 9.7 0.00 0.20 0.00 47 1010.0
20260905093522 20 213 3.2 4.8 0.00 0.20 0.00 46 1010.0
20260905092523 20 235 4.8 8.0 0.00 0.20 0.00 47 1010.0
20260905091522 20 133 3.2 4.8 0.00 0.20 0.00 48 1010.0
20260905090522 19 278 3.2 6.4 0.00 0.20 0.00 50 1010.0
20260905085522 19 210 3.2 4.8 0.00 0.20 0.00 50 1010.0
20260905084516 19 234 3.2 4.8 0.00 0.20 0.00 52 1010.0
20260905083525 18 179 3.2 4.8 0.00 0.20 0.00 53 1010.0
20260905082524 18 175 3.2 6.4 0.00 0.20 0.00 54 1010.0
20260905081526 18 236 1.6 3.2 0.00 0.20 0.00 55 1010.0
20260905080524 18 208 3.2 4.8 0.00 0.20 0.00 56 1010.0
20260905075558 18 164 1.6 4.8 0.00 0.20 0.00 57 1010.0
20260905074524 18 153 3.2 6.4 0.00 0.20 0.00 57 1009.7
20260905073522 18 241 1.6 4.8 0.00 0.20 0.00 57 1009.0
20260905072516 18 241 1.6 3.2 0.00 0.20 0.00 58 1009.0
20260905071523 17 188 3.2 4.8 0.00 0.20 0.00 58 1009.0
20260905070557 17 230 3.2 3.2 0.00 0.20 0.00 58 1009.0
20260905065526 17 194 3.2 4.8 0.00 0.20 0.00 58 1009.0
20260905064522 17 100 3.2 3.2 0.00 0.20 0.00 59 1009.0
20260905063531 17 245 3.2 6.4 0.00 0.20 0.00 59 1009.0
20260905062521 17 172 3.2 6.4 0.00 0.20 0.00 58 1008.0
20260905061523 17 240 3.2 4.8 0.00 0.20 0.00 59 1008.0
20260905060525 17 202 3.2 4.8 0.00 0.20 0.00 60 1008.0
20260905055522 17 211 3.2 4.8 0.00 0.20 0.00 60 1008.0
20260905054522 17 213 3.2 6.4 0.00 0.20 0.00 60 1008.0
20260905053525 17 230 3.2 4.8 0.00 0.20 0.00 60 1008.0
20260905052523 17 19 4.8 11.3 0.00 0.20 0.00 60 1008.0
20260905051523 17 226 3.2 6.4 0.00 0.20 0.00 61 1008.0
20260905050544 17 210 3.2 4.8 0.00 0.20 0.00 62 1008.0
20260905045524 17 2 1.6 6.4 0.00 0.20 0.00 63 1007.0
20260905044524 17 206 1.6 3.2 0.00 0.20 0.00 65 1007.0
20260905043603 17 97 3.2 6.4 0.00 0.20 0.00 66 1007.0
20260905042522 17 79 4.8 8.0 0.00 0.20 0.00 67 1007.0
20260905041522 17 31 3.2 6.4 0.00 0.20 0.00 68 1006.6
20260905040522 17 99 3.2 8.0 0.00 0.20 0.00 70 1005.9
20260905035525 17 66 4.8 9.7 0.00 0.20 0.00 70 1005.9
20260905034520 17 49 4.8 6.4 0.00 0.20 0.00 70 1005.9
20260905033523 17 157 1.6 6.4 0.00 0.20 0.00 69 1005.9
20260905032517 17 280 3.2 4.8 0.00 0.20 0.00 70 1004.9
20260905031517 17 211 1.6 3.2 0.00 0.20 0.00 70 1005.3
20260905030522 17 228 1.6 3.2 0.00 0.20 0.00 70 1005.9
20260905025523 17 217 3.2 4.8 0.00 0.20 0.00 70 1004.9
20260905024516 17 209 3.2 4.8 0.00 0.20 0.00 70 1005.3
20260905023544 17 229 3.2 6.4 0.00 0.20 0.00 70 1005.9
20260905022523 18 220 3.2 6.4 0.00 0.20 0.00 70 1004.9
20260905021542 18 226 1.6 3.2 0.00 0.20 0.00 70 1004.9
20260905020517 18 221 3.2 6.4 0.00 0.20 0.00 70 1004.9
20260905015517 18 222 3.2 6.4 0.00 0.20 0.00 70 1004.9
20260905014522 18 201 3.2 6.4 0.00 0.20 0.00 71 1004.9
20260905013523 18 227 3.2 3.2 0.00 0.20 0.00 71 1004.9
20260905012543 18 228 3.2 3.2 0.00 0.20 0.00 72 1004.9
20260905011543 18 224 3.2 6.4 0.00 0.20 0.00 72 1004.6
20260905010522 18 223 3.2 4.8 0.00 0.20 0.00 73 1003.9
20260905005544 18 252 1.6 3.2 0.00 0.20 0.00 73 1003.9
20260905004602 18 204 3.2 4.8 0.00 0.20 0.00 75 1003.9
20260905003523 18 220 1.6 4.8 0.00 0.20 0.00 76 1003.9
20260905002524 18 205 3.2 3.2 0.00 0.20 0.00 76 1003.9
20260905001519 18 223 1.6 4.8 0.00 0.20 0.00 76 1003.9
20260905000525 18 222 1.6 3.2 0.00 0.20 0.00 76 1003.9
20260904235522 18 206 1.6 3.2 0.00 0.20 0.00 77 1003.9
20260904234524 18 232 1.6 3.2 0.00 0.20 0.00 77 1003.9
20260904233541 18 203 1.6 4.8 0.00 0.20 0.00 78 1003.9
20260904232522 18 218 1.6 3.2 0.00 0.20 0.00 78 1003.9
20260904231547 18 221 1.6 3.2 0.00 0.20 0.00 78 1003.9
20260904230558 18 212 1.6 3.2 0.00 0.20 0.00 77 1003.9
20260904225522 18 203 0.0 1.6 0.00 0.20 0.00 76 1003.9
20260904224522 18 213 0.0 3.2 0.00 0.20 0.00 76 1003.9
20260904223523 18 248 1.6 1.6 0.00 0.20 0.00 75 1002.9
20260904222524 18 252 1.6 1.6 0.00 0.20 0.00 75 1002.9
20260904221517 18 237 1.6 3.2 0.00 0.20 0.00 74 1002.9
20260904220516 18 203 0.0 1.6 0.00 0.20 0.00 74 1002.9
20260904215517 18 258 1.6 3.2 0.00 0.20 0.20 73 1003.8
20260904214523 18 203 1.6 3.2 0.00 0.20 0.20 73 1003.9
20260904214042 18 203 0.0 1.6 0.00 0.20 0.20 73 1003.1
20260904213023 18 218 3.2 4.8 0.00 0.20 0.20 73 1002.9
20260904212019 18 302 1.6 4.8 0.00 0.20 0.20 73 1002.9
20260904211104 18 237 3.2 6.4 0.00 0.20 0.20 72 1002.9
20260904210022 18 243 1.6 3.2 0.00 0.20 0.20 72 1002.9
20260904205022 19 248 0.0 3.2 0.00 0.20 0.20 72 1002.9
20260904204022 19 240 1.6 3.2 0.00 0.20 0.20 73 1002.9
20260904203043 19 220 1.6 3.2 0.00 0.20 0.20 72 1002.9
20260904202042 20 232 1.6 3.2 0.20 0.20 0.20 72 1002.9
20260904201117 20 216 3.2 4.8 0.20 0.20 0.20 72 1002.9
20260904200016 20 226 3.2 4.8 0.20 0.20 0.20 71 1002.9
20260904195018 21 268 3.2 4.8 0.20 0.20 0.20 67 1001.9
20260904194022 21 234 3.2 3.2 0.00 0.00 0.00 64 1001.9
20260904193024 21 239 3.2 4.8 0.00 0.00 0.00 60 1001.9
20260904192024 22 202 3.2 4.8 0.00 0.00 0.00 56 1001.9
20260904191024 22 190 6.4 9.7 0.00 0.00 0.00 56 1001.9
20260904190024 22 218 3.2 3.2 0.00 0.00 0.00 55 1001.9
20260904185042 22 232 3.2 4.8 0.00 0.00 0.00 55 1001.9
20260904184021 22 208 3.2 8.0 0.00 0.00 0.00 55 1001.9
20260904183022 21 224 1.6 3.2 0.00 0.00 0.00 55 1001.9
20260904182022 21 206 3.2 6.4 0.00 0.00 0.00 55 1001.9
20260904181022 21 230 3.2 3.2 0.00 0.00 0.00 55 1002.7
20260904180023 21 226 1.6 4.8 0.00 0.00 0.00 55 1002.9
20260904175017 21 212 1.6 3.2 0.00 0.00 0.00 55 1002.9
20260904174026 21 214 1.6 3.2 0.00 0.00 0.00 54 1002.9
20260904173024 21 175 3.2 3.2 0.00 0.00 0.00 54 1002.9
20260904172022 22 219 3.2 4.8 0.00 0.00 0.00 53 1002.9
20260904171016 22 243 1.6 3.2 0.00 0.00 0.00 52 1003.8
20260904170022 22 219 3.2 6.4 0.00 0.00 0.00 52 1003.9
20260904165042 22 233 3.2 4.8 0.00 0.00 0.00 51 1003.9
20260904164022 22 246 4.8 6.4 0.00 0.00 0.00 50 1003.9
20260904163022 22 238 3.2 4.8 0.00 0.00 0.00 50 1003.9
20260904162022 22 229 3.2 6.4 0.00 0.00 0.00 49 1004.9
20260904161024 22 222 3.2 4.8 0.00 0.00 0.00 49 1004.9
20260904160024 22 230 3.2 4.8 0.00 0.00 0.00 49 1004.9
20260904155026 22 174 3.2 4.8 0.00 0.00 0.00 49 1004.9
20260904154022 22 258 1.6 3.2 0.00 0.00 0.00 48 1004.9
20260904153024 22 218 1.6 4.8 0.00 0.00 0.00 48 1004.9
20260904152035 22 200 3.2 4.8 0.00 0.00 0.00 48 1004.9
20260904151102 22 231 1.6 3.2 0.00 0.00 0.00 48 1005.6
20260904145022 22 205 3.2 4.8 0.00 0.00 0.00 48 1005.9
20260904144022 22 193 1.6 3.2 0.00 0.00 0.00 48 1005.9
20260904143039 22 216 3.2 3.2 0.00 0.00 0.00 47 1005.9
20260904142022 22 223 3.2 4.8 0.00 0.00 0.00 47 1005.9
20260904141025 22 219 3.2 6.4 0.00 0.00 0.00 47 1006.6
20260904140022 22 212 3.2 6.4 0.00 0.00 0.00 47 1007.0
20260904135022 22 212 4.8 6.4 0.00 0.00 0.00 47 1007.0
20260904134022 22 214 4.8 6.4 0.00 0.00 0.00 47 1007.0
20260904133015 22 215 4.8 6.4 0.00 0.00 0.00 48 1007.0
20260904132022 22 216 1.6 4.8 0.00 0.00 0.00 47 1008.0
20260904131042 22 224 4.8 4.8 0.00 0.00 0.00 48 1008.0
20260904130017 22 203 3.2 3.2 0.00 0.00 0.00 48 1008.0
20260904125102 22 181 3.2 3.2 0.00 0.00 0.00 48 1008.0
20260904124022 22 241 3.2 4.8 0.00 0.00 0.00 48 1008.0
20260904123022 22 222 3.2 4.8 0.00 0.00 0.00 48 1008.0
20260904122042 22 228 3.2 4.8 0.00 0.00 0.00 48 1008.0
20260904121015 22 228 3.2 3.2 0.00 0.00 0.00 49 1008.0
20260904120018 22 225 1.6 3.2 0.00 0.00 0.00 49 1008.0
20260904115022 22 214 4.8 6.4 0.00 0.00 0.00 49 1009.0
20260904114022 22 199 3.2 3.2 0.00 0.00 0.00 49 1009.0
20260904113018 22 211 3.2 4.8 0.00 0.00 0.00 50 1009.0
20260904112044 22 222 3.2 4.8 0.00 0.00 0.00 49 1009.0
20260904111022 22 230 4.8 6.4 0.00 0.00 0.00 50 1009.0
20260904110026 22 226 3.2 4.8 0.00 0.00 0.00 52 1009.0
20260904105025 22 200 3.2 4.8 0.00 0.00 0.00 53 1010.0
20260904104015 22 232 3.2 4.8 0.00 0.00 0.00 54 1010.0
20260904103022 21 245 1.6 1.6 0.00 0.00 0.00 55 1010.0